Weather in Alymka

Russia / Tyumen Oblast     59°01′30″N   68°48′14″E
temp.,
°C
wind,
m/s
gust,
m/s
humid.,
%
clouds,
%
prec.,
mm/h
press.,
hPa
HPBL,
m
6 may, thu
thu623:00+16sse51248100 0.0 996210
02:00+16sse7175198 0.0 991373
05:00+15w91365100 0.1 992719
08:00+11w9127754 0.3 9951046
11:00+11w7106185 0.5 9981459
14:00+12w9125097 1.0 10001888
17:00+11w9135352 1.6 10031894
20:00+9w712595 0.1 1006789
7 may, fri
fri723:00+8w611656 0.1 1008534
02:00+6w712636 0.0 1009693
05:00+4w712685 0.0 1011817
08:00+6w812545 0.0 10131239
11:00+11w913340 0.0 10131555
14:00+15w913355 0.0 10141900
17:00+18w815416 0.0 10142265
20:00+15wnw596015 0.1 1014197
8 may, sat
sat823:00+11wsw49765 0.3 1016127
02:00+10w48795 0.0 1016113
05:00+10w37831 0.0 1017113
08:00+15wnw35615 0.0 1018435
11:00+20w474027 0.0 10181929
14:00+22wnw353028 0.0 10172612
17:00+22nnw3431100 0.0 10172312
20:00+18n2249100 0.0 101715
9 may, sun
sun923:00+14wnw1160100 0.0 101813
02:00+13nnw3568100 0.1 1019100
05:00+12ne3573100 0.9 101991
08:00+16ne346061 0.0 1020367
11:00+20ne444657 0.0 10201165
14:00+22nne433735 0.0 10192226
17:00+21ne54378 0.0 10191885
20:00+16ne4841100 0.0 1020148
10 may, mon
mon1023:00+12ene410540 0.0 1021193
02:00+9ene38711 0.0 1022167
05:00+8ene48835 0.0 1023205
08:00+12ene45544 0.0 1023483
11:00+17ene34320 0.0 10231010
14:00+19ene22240 0.0 10221354
17:00+20e21235 0.0 10211546
20:00+16ese2238100 0.0 102111